Regional Weather Roundup
Issued by NWS

Home | Current Version | Previous Version | Text Only | Print | Product List | Glossary Off
Versions: 1 2 3 4 5 6 7 8 9 10 11 12 13 14 15 16 17 18 19 20 21 22 23 24 25 26 27 28 29 30 31 32 33 34 35 36 37 38 39 40 41 42 43 44 45 46 47 48 49 50

000
ASUS45 KSLC 230010
RWRUT

UTAH REGIONAL WEATHER ROUNDUP
NATIONAL WEATHER SERVICE SALT LAKE CITY UT
500 PM MST SAT NOV 22 2014

UTZ001>011-023>025-230100-

NORTHERN UTAH

CITY           SKY/WX    TMP DP  RH WIND       PRES   REMARKS
BRIGHAM CITY   CLOUDY    40  32  73 CALM      29.80F
HILL AFB       LGT RAIN  37  37  97 N10       29.83R WCI  30
LOGAN          CLOUDY    35  33  92 SW12      29.78S WCI  27
OGDEN          LGT RAIN  37  36  96 S3        29.81R
PROVO AIRPORT  LGT RAIN  43  37  81 N9        29.79R
SALT LAKE CITY RAIN      38  36  92 N20G26    29.84R WCI  28
VERNAL         LGT RAIN  37  30  75 N6        29.77F WCI  32
WENDOVER       CLOUDY    43  34  70 N14G20    29.85R
HEBER CITY     LGT SNOW  36  34  93 S3        29.76F

$$

UTZ012>022-026-027-230100-

SOUTHERN/CENTRAL UTAH

CITY           SKY/WX    TMP DP  RH WIND       PRES   REMARKS
BLANDING       CLOUDY    44  23  44 CALM      29.98F
BRYCE CANYON   CLOUDY    43  23  45 SW17      29.93F
CEDAR CITY     MOCLDY    50  20  30 SW23G35   29.87S
DELTA          CLOUDY    48  38  69 N23G36    29.82R
MILFORD        MOCLDY    52  24  33 SW22G32   29.80F
MOAB/CYNLANDS  MOCLDY    45  18  34 W3        29.81F
PRICE          CLOUDY    32  29  88 N3        29.82F
ST GEORGE      CLOUDY    61  25  25 SW3       29.91F
KANAB            N/A     55  19  24 SW13      29.96S

$$

REGIONAL REPORTS     COLORADO/ARIZONA

CITY           SKY/WX    TMP DP  RH WIND       PRES   REMARKS
CRAIG, CO      CLOUDY    40  27  59 SW16G24   29.77F WCI  31
GRAND JUNCTION CLOUDY    40  23  50 E6        29.87R
RIFLE          CLOUDY    39  32  76 E12       29.86S WCI  32
MONTROSE       LGT RAIN  45  23  42 N8        29.90R
CORTEZ         MOCLDY    44  22  41 CALM      29.93F
PAGE, AZ       NOT AVBL
GRAND CANYON   CLEAR     52  16  24 SW13G21   30.01S
KINGMAN        CLEAR     62  19  19 S14       29.95F
FLAGSTAFF      CLEAR     48  15  26 SW13G25   30.03F

$$

REGIONAL REPORTS    NEVADA/IDAHO/WYOMING

CITY           SKY/WX    TMP DP  RH WIND       PRES   REMARKS
LAS VEGAS, NV  PTCLDY    69  30  23 SW14      29.82S
ELY            LGT RAIN  48  50 100 W21G31    29.87F
ELKO           CLOUDY    38  32  79 W5        29.92R WCI  34
POCATELLO, ID  MOCLDY    38  35  89 SW24G32   29.74R WCI  27
BURLEY         LGT RAIN  39  33  79 W20G30    29.77R WCI  29
EVANSTON, WY   LGT SNOW  31  30  96 W17       29.79R VSB 3/4 WCI  19
ROCK SPRINGS   CLOUDY    34  30  85 W25G32    29.68R WCI  21
KEMMERER       LGT SNOW  30  30 100 W18       29.70F WCI  18

$$



USA.gov is the U.S. government's official web portal to all federal, state and local government web resources and services.